Malmstrom AFB, MT

9:39 PM MST on December 17, 2017 (GMT -0700)
Malmstrom AFB

Weather History for KGFA - August, 2013

Change the Weather History Date:

Friday, August 16, 2013

  Actual Average (KGTF) Record (KGTF)
Temperature  
Mean Temperature 76 °F -  
Max Temperature 96 °F 80 °F 101 °F (2013)
Min Temperature 55 °F 52 °F 39 °F (2002)
Cooling Degree Days 10    
Growing Degree Days 26 (Base 50)    
Moisture  
Dew Point 40 °F    
Average Humidity 30    
Maximum Humidity 59    
Minimum Humidity 10    
Precipitation  
Precipitation 0.00 in - - ()
Sea Level Pressure  
Sea Level Pressure 29.90 in    
Wind  
Wind Speed 5 mph (WSW)    
Max Wind Speed 14 mph    
Max Gust Speed 24 mph    
Visibility 10 miles    
Events      
Averages and records for this station are not official NWS values.
T = Trace of Precipitation, MM = Missing Value Source: NWS Daily Summary

Daily Weather History Graph

Daily Weather History Graph

Search for Another Location

Airport or City:

Trip Planner

Search our weather history database for the weather conditions in past years. The results will help you decide how hot, cold, wet, or windy it might be!

Date:

Astronomy

Aug. 16, 2013 Rise Set
Actual Time 6:22 AM MDT 8:34 PM MDT
Civil Twilight 5:48 AM MDT 9:07 PM MDT
Nautical Twilight 5:06 AM MDT 9:49 PM MDT
Astronomical Twilight 4:19 AM MDT 10:36 PM MDT
Moon 5:05 PM MDT (8/16) 1:20 AM MDT (8/16)
Length of Visible Light 15h 19m
Length of Day
14h 11m
Waxing Gibbous, 75% of the Moon is Illuminated
Aug 16
Waxing Gibbous
Aug 20
Full
Aug 28
Last Quarter
Sep 5
New
Sep 12
First Quarter

Hourly Weather History & Observations

Time (MDT) Temp. Dew Point Humidity Pressure Visibility Wind Dir Wind Speed Gust Speed Precip Events Conditions
12:56 AM 60.1 °F 39.0 °F 46% 29.93 in 10.0 mi South 8.1 mph - N/A   Clear
1:56 AM 64.9 °F 37.9 °F 37% 29.92 in 10.0 mi Calm Calm - N/A   Clear
2:56 AM 62.1 °F 39.0 °F 43% 29.92 in 10.0 mi SSE 3.5 mph - N/A   Clear
3:56 AM 63.0 °F 39.0 °F 41% 29.92 in 10.0 mi SSW 4.6 mph - N/A   Clear
4:56 AM 63.0 °F 37.9 °F 40% 29.92 in 10.0 mi Calm Calm - N/A   Clear
5:56 AM 55.9 °F 41.0 °F 57% 29.94 in 10.0 mi South 4.6 mph - N/A   Clear
6:56 AM 55.0 °F 41.0 °F 59% 29.94 in 10.0 mi SSE 4.6 mph - N/A   Clear
7:56 AM 63.0 °F 42.1 °F 46% 29.94 in 10.0 mi Calm Calm - N/A   Clear
8:56 AM 68.0 °F 43.0 °F 40% 29.95 in 10.0 mi Calm Calm - N/A   Clear
10:56 AM 82.9 °F 44.1 °F 25% 29.90 in 10.0 mi SW 9.2 mph - N/A   Clear
11:56 AM 84.9 °F 42.1 °F 22% 29.91 in 10.0 mi West 8.1 mph - N/A   Clear
12:56 PM 89.1 °F 42.1 °F 19% 29.89 in 10.0 mi Calm Calm - N/A   Clear
1:56 PM 91.0 °F 41.0 °F 17% 29.86 in 10.0 mi Calm Calm - N/A   Clear
2:56 PM 93.9 °F 39.0 °F 15% 29.85 in 10.0 mi NW 8.1 mph - N/A   Clear
3:56 PM 96.1 °F 35.1 °F 12% 29.83 in 10.0 mi North 3.5 mph - N/A   Clear
4:56 PM 96.1 °F 36.0 °F 12% 29.83 in 10.0 mi NW 11.5 mph - N/A   Clear
5:56 PM 96.1 °F 32.0 °F 10% 29.86 in 10.0 mi West 13.8 mph 21.9 mph N/A   Clear
6:56 PM 93.0 °F 35.1 °F 13% 29.88 in 10.0 mi WNW 11.5 mph 24.2 mph N/A   Clear
7:56 PM 86.0 °F 39.9 °F 20% 29.89 in 10.0 mi NW 5.8 mph - N/A   Clear
8:56 PM 80.1 °F 39.9 °F 24% 29.91 in 10.0 mi Calm Calm - N/A   Clear
9:56 PM 78.1 °F 41.0 °F 27% 29.93 in 10.0 mi Calm Calm - N/A   Clear
10:56 PM 68.0 °F 44.1 °F 42% 29.94 in 10.0 mi SE 4.6 mph - N/A   Clear
11:56 PM 72.0 °F 41.0 °F 33% 29.93 in 10.0 mi WSW 3.5 mph - N/A   Clear